This demonstration page uses our WeatherBlox Daily Observations layout. Learn more.

Left ArrowRight Arrow

39.92423, -83.80882

Hourly Observations for August 6, 2022

Temp ( °F °C ) Dew Point ( °F °C ) Humidity (%) Winds ( mph kmh ) Pressure ( in mb ) Visibility ( mi km ) Precip ( " mm )
12:56 am 00:56 Cloudy N/A N/A N/A Calm N/A 10 16 0.00 0.00
1:38 am 01:38 Cloudy N/A N/A N/A SE 3 6 N/A 9 14 0.00 0.00
1:56 am 01:56 Partly Cloudy N/A N/A N/A SSE 3 6 N/A 7 11 0.00 0.00
2:07 am 02:07 Mostly Clear N/A N/A N/A SSE 3 6 N/A 8 13 0.00 0.00
2:56 am 02:56 Mostly Cloudy N/A N/A N/A SE 5 7 N/A 9 14 0.00 0.00
3:39 am 03:39 Partly Cloudy N/A N/A N/A SE 6 9 N/A 9 14 0.00 0.00
3:45 am 03:45 Mostly Cloudy N/A N/A N/A SE 6 9 N/A 8 13 0.00 0.00
3:56 am 03:56 Mostly Cloudy N/A N/A N/A SSE 5 7 N/A 9 14 0.00 0.00
4:56 am 04:56 Partly Cloudy N/A N/A N/A S 3 6 N/A 10 16 0.00 0.00
5:05 am 05:05 Mostly Cloudy N/A N/A N/A Calm N/A 10 16 0.00 0.00
5:22 am 05:22 Cloudy N/A N/A N/A Calm N/A 10 16 0.00 0.00
5:31 am 05:31 Cloudy N/A N/A N/A S 3 6 N/A 10 16 0.00 0.00
5:56 am 05:56 Cloudy N/A N/A N/A SSE 3 6 N/A 10 16 0.00 0.00
6:56 am 06:56 Cloudy N/A N/A N/A Calm N/A 9 14 0.00 0.00
7:05 am 07:05 Cloudy N/A N/A N/A Calm N/A 9 14 0.00 0.00
7:56 am 07:56 Cloudy with Haze N/A N/A N/A ENE 5 7 N/A 5 8 0.00 0.00
8:14 am 08:14 Cloudy N/A N/A N/A Calm N/A 7 11 0.00 0.00
8:30 am 08:30 Cloudy with Light Rain N/A N/A N/A Calm N/A 7 11 0.01 0.25
8:56 am 08:56 Cloudy 72 22 N/A N/A Calm 30.16 1021 9 14 0.01 0.25
9:56 am 09:56 Cloudy with Light Rain 73 23 N/A N/A SSE 5 7 30.16 1021 4 6 0.00 0.00
10:56 am 10:56 Cloudy 75 24 N/A N/A VRB 3 6 30.15 1021 9 14 0.00 0.00
11:10 am 11:10 Cloudy 75 24 N/A N/A S 6 9 30.16 1021 9 14 0.00 0.00
11:40 am 11:40 Cloudy with Rain 75 24 N/A N/A SSW 5 7 30.16 1021 4 6 0.00 0.00
11:54 am 11:54 Mostly Cloudy with Light Rain 75 24 N/A N/A WSW 3 6 30.15 1021 7 11 0.01 0.25
11:56 am 11:56 Mostly Cloudy 77 25 N/A N/A SW 5 7 30.14 1021 7 11 0.01 0.25
12:05 pm 12:05 Mostly Cloudy 77 25 N/A N/A VRB 3 6 30.14 1021 8 13 0.00 0.00
12:25 pm 12:25 Cloudy 75 24 N/A N/A SSW 5 7 30.15 1021 8 13 0.00 0.00
12:46 pm 12:46 Mostly Cloudy 77 25 N/A N/A SW 7 11 30.14 1021 9 14 0.00 0.00
12:53 pm 12:53 Mostly Cloudy 79 26 N/A N/A SSW 8 13 30.14 1021 9 14 0.00 0.00
12:56 pm 12:56 Mostly Cloudy 79 26 N/A N/A SW 8 13 30.14 1021 10 16 0.00 0.00
1:34 pm 13:34 Partly Cloudy 81 27 79 26 94 94 VRB 7 11 30.12 1020 10 16 0.00 0.00
1:56 pm 13:56 Partly Cloudy 82 27.8 75 23.9 79 79 WSW 7 11 30.11 1020 10 16 0.00 0.00
2:53 pm 14:53 Cloudy 82 28 77 25 84 84 SSW 6 9 30.11 1020 10 16 0.00 0.00
2:56 pm 14:56 Cloudy 82 27.8 77 25 85 85 SSW 8 13 30.11 1020 10 16 0.00 0.00
3:56 pm 15:56 Cloudy 79 26.1 79 26.1 100 100 S 7 11 30.09 1019 10 16 0.00 0.00
4:14 pm 16:14 Mostly Cloudy 81 27 79 26 94 94 SSW 8 13 30.10 1019 10 16 0.00 0.00
4:56 pm 16:56 Mostly Cloudy 81 27.2 80 26.7 97 97 SSW 7 11 30.09 1019 10 16 0.00 0.00
5:56 pm 17:56 Mostly Sunny 82 27.8 78 25.6 88 88 SW 8 13 30.07 1018 10 16 0.00 0.00
6:56 pm 18:56 Sunny 82 27.8 76 24.4 82 82 SSW 6 9 30.07 1018 10 16 0.00 0.00
7:56 pm 19:56 Sunny 79 26.1 79 26.1 100 100 SW 8 13 30.09 1019 10 16 0.00 0.00
8:56 pm 20:56 Clear 75 24 N/A N/A Calm 30.14 1021 9 14 0.00 0.00
9:56 pm 21:56 Clear N/A N/A N/A S 3 6 N/A 9 14 0.00 0.00
10:56 pm 22:56 Clear N/A N/A N/A Calm N/A 9 14 0.00 0.00
11:56 pm 23:56 Partly Cloudy N/A N/A N/A Calm N/A 9 14 0.00 0.00

Powered by AerisWeather